DECAYED

STARLINK-1071, 44934 (Decayed)

Orbit data source: Space-Track

STARLINK-1071, 44934 was a payload satellite owned by SpaceX/Seattle (US) in LEO that was launched on Tue, 07 Jan 2020 UTC via an FALCON 9 launch vehicle from the Air Force Eastern Test Range (AFETR). Payload-class satellites include a variety of spacecraft equipped with specific instruments for various scientific and technological missions. These include communications satellites like Starlink; space stations such as the ISS; scientific satellites like the Hubble; Earth observation satellites from companies like Planet Labs, Umbra, and HawkEye 360; GPS; miniature CubeSats for education and research; and military/defense satellites.

Not visible in the next 10 days
Identifier
44934, 2020-001W
Orbit
Decayed
Country
Flag of USUS
Related business
Manufacturer
SpaceX/Seattle
Mission
Decayed Commercial Communications
Bus & Motor
STARLINK, Unknown motor
Mass
260 kg wet, ~248 kg dry
Launch date (UTC)
2020-01-07 (7 years ago)
Launch vehicle
FALCON 9
Launch site
Air Force Eastern Test Range (AFETR)
Object type
Payload
Rocket body
Debris
Shape & HBR
Box + 1 Pan, 10.1 m
Radar Cross Section
13.562 m², Large (>1 m²)

Expand to show TLE details & history
Last TLE update: 1 year ago

TLE from 1 year ago
0 STARLINK-1071
1 44934U 20001W   25258.06999302  .02466582  11969-4  82932-3 0  9997
2 44934  53.0342 330.4113 0007222 351.2862   8.8052 16.24901630314551
Epoch: 2025-09-15T01:40Z
TLE epoch observation values (Epoch: 2025-09-15T01:40:47.396Z)
Latitude
0.00001°
Longitude
-49.06611°
Altitude
202.5 km
Speed
7.789 km/s
True Right ascension
22h 01m 38s
True Declination
0° 00' 00"
Sunlit
Object was in full shadow at epoch
Visualization orbit readout
Latitude
Unknown
Longitude
Unknown
Altitude
Unknown
Speed
Unknown
Apparent Right ascension
Unknown
Apparent Declination
Unknown
Sunlit
N/A
Visualization observer readout
Local Sidereal Time
05:57:32
Azimuth
Unknown
Elevation
Unknown
Doppler factor
Unknown
Orbital elements
Apogee altitude
211.32 km
Perigee altitude
201.809 km
Semi-major axis
6,584.702 km
Eccentricity
0.00072
Inclination
53.0342°
RAAN
330.4113°
Arg. of periapsis
351.2862°
True anomaly
8.81788°
Mean anomaly
8.8052°
Eccentric anomaly
8.81154°
Mean motion
4.06199 °/min
Orbital period
88.63 mins
BSTAR
0.00082932
Loading maneuver chart data...
Computing Atmospheric mass density...

Documentation

Showing up to 5 results
|